{"data":{"norad_id":62957,"epoch":"2026-09-21T16:24:34.156224Z","epoch_age_seconds":62885,"freshness":"FRESH","line1":"1 62957U 25029K   26264.68372866  .00011260  00000+0  37373-3 0  9998","line2":"2 62957  53.1590  40.7758 0001139  87.1866 272.9266 15.31728975 91344","mean_motion":15.31728975,"eccentricity":0.0001139,"inclination_deg":53.159,"raan_deg":40.7758,"arg_perigee_deg":87.1866,"mean_anomaly_deg":272.9266,"bstar":0.00037373,"rev_number":9134,"period_min":94.011409557621,"perigee_km":469.87354636792,"apogee_km":471.43370087198,"semimajor_km":6848.79062362,"source":"CELESTRAK","updated_at":"2026-09-22T09:00:49.712826Z"}}